EA1M Weather Reports


Display with metric or nautical units.
time (UTC)temp
F
wind
direction
speed
MPH
gust
MPH
rain 1hr
in
rain 24hr
in
rain mn
in
humidity
%
barometer
mb
20260502163108 57 354 1.0 6.0 0.10 0.61 0.61 90 1015.3
20260502162027 56 354 4.0 7.0 0.09 0.60 0.60 90 1015.5
20260502161052 57 1 3.0 8.0 0.09 0.60 0.60 89 1015.5
20260502160120 58 1 3.0 7.0 0.01 0.52 0.52 89 1015.6
20260502152044 58 356 4.0 8.0 0.08 0.51 0.51 92 1015.6
20260502151128 59 343 3.0 6.0 0.08 0.51 0.51 93 1015.9
20260502123129 62 30 3.0 8.0 0.00 0.05 0.05 74 1016.3
20260502122028 61 1 3.0 6.0 0.00 0.05 0.05 78 1016.5
20260502121052 61 35 3.0 6.0 0.00 0.05 0.05 78 1016.6
20260502120116 61 1 2.0 4.0 0.00 0.05 0.05 76 1016.7
20260502115036 61 11 2.0 4.0 0.00 0.05 0.05 77 1016.6
20260502114100 63 22 2.0 4.0 0.00 0.05 0.05 73 1016.7
20260502113020 62 14 3.0 6.0 0.00 0.05 0.05 74 1016.8
20260502112043 62 15 2.0 7.0 0.00 0.05 0.05 74 1016.8
20260502111108 63 17 3.0 6.0 0.00 0.05 0.05 75 1016.7
20260502110109 65 36 2.0 4.0 0.00 0.05 0.05 70 1016.7
20260502105052 64 19 2.0 4.0 0.00 0.05 0.05 74 1016.8
20260502104116 63 20 1.0 2.0 0.00 0.05 0.05 76 1017.0
20260502103036 63 33 1.0 2.0 0.00 0.05 0.05 78 1017.1
20260502102100 62 43 1.0 3.0 0.00 0.05 0.05 78 1017.1
20260502101020 62 53 0.0 2.0 0.00 0.05 0.05 74 1017.2
20260502091037 55 79 1.0 2.0 0.05 0.05 0.05 92 1017.6
20260502071108 53 122 2.0 4.0 0.00 0.00 0.00 90 1017.6
20260502070048 53 101 1.0 3.0 0.00 0.00 0.00 90 1017.5
20260502065052 53 88 2.0 3.0 0.00 0.00 0.00 90 1017.4
20260502064115 53 81 1.0 2.0 0.00 0.00 0.00 91 1017.6
20260502063055 53 86 1.0 3.0 0.00 0.00 0.00 91 1017.5
20260502062119 52 100 2.0 4.0 0.00 0.00 0.00 91 1017.6
20260502061020 52 107 3.0 4.0 0.00 0.00 0.00 91 1017.5
20260502060044 52 146 3.0 6.0 0.00 0.00 0.00 91 1017.5
20260502055128 52 91 2.0 2.0 0.00 0.00 0.00 92 1017.3
20260502054027 52 84 1.0 2.0 0.00 0.00 0.00 92 1017.3
20260502053051 52 98 2.0 4.0 0.00 0.00 0.00 92 1017.3
20260502052115 52 86 2.0 3.0 0.00 0.00 0.00 92 1017.3
20260502051035 52 86 2.0 3.0 0.00 0.00 0.00 92 1017.2
20260502050059 52 80 1.0 2.0 0.00 0.00 0.00 92 1017.0
20260502045019 52 85 2.0 2.0 0.00 0.00 0.00 92 1017.0
20260502044103 52 98 2.0 2.0 0.00 0.00 0.00 92 1017.1
20260502043107 52 99 2.0 2.0 0.00 0.00 0.00 92 1017.0
20260502042027 52 96 2.0 3.0 0.00 0.00 0.00 92 1017.1
20260502041051 52 94 2.0 2.0 0.00 0.00 0.00 92 1017.1
20260502040115 52 94 2.0 3.0 0.00 0.00 0.00 91 1017.1
20260502035035 52 74 1.0 1.0 0.00 0.00 0.00 91 1017.2
20260502034100 52 85 1.0 3.0 0.00 0.00 0.00 91 1017.3
20260502033020 52 83 1.0 2.0 0.00 0.00 0.00 91 1017.2
20260502032044 53 78 1.0 2.0 0.00 0.00 0.00 91 1017.2
20260502031112 53 73 0.0 1.0 0.00 0.00 0.00 91 1017.4
20260502030028 53 95 2.0 3.0 0.00 0.00 0.00 91 1017.4
20260502025051 53 86 1.0 2.0 0.00 0.00 0.00 91 1017.5
20260502024116 53 66 1.0 2.0 0.00 0.00 0.00 91 1017.6
20260502023037 53 84 1.0 3.0 0.00 0.00 0.00 91 1017.8
20260502022100 53 72 1.0 3.0 0.00 0.00 0.00 91 1017.8
20260502021044 53 108 2.0 4.0 0.00 0.00 0.00 91 1017.8
20260502020044 53 121 3.0 6.0 0.00 0.00 0.00 91 1017.8
20260502015108 54 114 4.0 4.0 0.00 0.00 0.00 91 1017.8
20260502014027 54 109 2.0 4.0 0.00 0.00 0.00 90 1018.0
20260502013051 54 109 3.0 4.0 0.00 0.00 0.00 90 1018.1
20260502012116 55 114 3.0 6.0 0.00 0.00 0.00 89 1018.1
20260502011035 55 106 3.0 4.0 0.00 0.00 0.00 90 1018.1
20260502010059 55 98 2.0 4.0 0.00 0.00 0.00 90 1018.2
20260502005019 55 116 3.0 4.0 0.00 0.00 0.00 90 1018.3
20260502004043 55 126 3.0 4.0 0.00 0.00 0.00 89 1018.4
20260502003107 56 106 2.0 4.0 0.00 0.00 0.00 88 1018.5
20260502002027 56 91 2.0 2.0 0.00 0.00 0.00 88 1018.5
20260502001112 56 86 1.0 2.0 0.00 0.00 0.00 87 1018.5
20260502000136 57 96 1.0 2.0 0.00 0.00 0.00 87 1018.8
20260501235035 56 66 0.0 1.0 0.00 0.00 0.00 86 1019.0
20260501234120 57 0.0 0.0 0.00 0.00 0.00 86 1019.1
20260501233020 57 0.0 0.0 0.00 0.00 0.00 86 1019.1
20260501232044 58 64 0.0 1.0 0.00 0.00 0.00 85 1019.3
20260501231107 58 0.0 0.0 0.00 0.00 0.00 86 1019.4
20260501230027 58 0.0 0.0 0.00 0.00 0.00 85 1019.4
20260501225052 58 0.0 0.0 0.00 0.00 0.00 85 1019.4
20260501224116 58 0.0 0.0 0.00 0.00 0.00 85 1019.4
20260501223036 58 0.0 0.0 0.00 0.00 0.00 85 1019.6
20260501222100 58 0.0 0.0 0.00 0.00 0.00 84 1019.7
20260501221019 58 42 0.0 1.0 0.00 0.00 0.00 84 1019.7
20260501220044 58 35 1.0 1.0 0.00 0.00 0.00 84 1019.7
20260501215107 58 44 0.0 1.0 0.00 0.00 0.00 83 1019.8
20260501214027 58 40 1.0 2.0 0.00 0.00 0.00 83 1019.6
20260501213051 59 60 0.0 2.0 0.00 0.00 0.00 83 1020.0
20260501212116 59 51 0.0 2.0 0.00 0.00 0.00 82 1020.2
20260501211036 59 50 1.0 2.0 0.00 0.00 0.00 82 1020.1
20260501210100 59 47 1.0 2.0 0.00 0.00 0.00 82 1020.0
20260501205019 59 56 0.0 1.0 0.00 0.00 0.00 82 1019.9
20260501204043 59 38 1.0 2.0 0.00 0.00 0.00 82 1019.9
20260501203107 60 42 0.0 1.0 0.00 0.00 0.00 81 1019.8
20260501202027 60 0.0 1.0 0.00 0.00 0.00 80 1019.8
20260501201052 60 39 0.0 2.0 0.00 0.00 0.00 78 1019.7
20260501200116 61 25 1.0 3.0 0.00 0.00 0.00 75 1019.7
20260501195036 61 50 0.0 1.0 0.00 0.00 0.00 72 1019.7
20260501194100 61 37 0.0 2.0 0.00 0.00 0.00 72 1019.7
20260501193100 61 21 1.0 3.0 0.00 0.00 0.00 72 1019.8
20260501192043 61 15 1.0 2.0 0.00 0.00 0.00 72 1019.5
20260501191107 61 19 1.0 2.0 0.00 0.00 0.00 71 1019.4
20260501190027 61 34 1.0 3.0 0.00 0.00 0.00 71 1019.5
20260501185051 61 33 1.0 3.0 0.00 0.00 0.00 71 1019.3
20260501184116 61 1 1.0 3.0 0.00 0.00 0.00 71 1019.4
20260501183036 61 27 1.0 3.0 0.00 0.00 0.00 71 1019.7
20260501182059 61 28 1.0 3.0 0.00 0.00 0.00 71 1019.6
20260501181019 62 5 2.0 3.0 0.00 0.00 0.00 71 1019.6
20260501180043 62 35 2.0 4.0 0.00 0.00 0.00 70 1019.6
20260501175108 62 18 2.0 4.0 0.00 0.00 0.00 70 1019.4
20260501174028 62 358 2.0 6.0 0.00 0.00 0.00 70 1019.4
20260501173132 62 26 2.0 4.0 0.00 0.00 0.00 70 1019.5
20260501172115 62 21 3.0 4.0 0.00 0.00 0.00 70 1019.6
20260501171036 63 24 2.0 6.0 0.00 0.00 0.00 70 1019.5
20260501170059 63 356 3.0 7.0 0.00 0.00 0.00 70 1019.4
20260501165020 64 357 3.0 6.0 0.00 0.00 0.00 69 1019.3
20260501164043 64 338 2.0 6.0 0.00 0.00 0.00 70 1019.3